#timestamp,LO_Frequency,Hit,StdDev 
1543831215.2,286047000.8,N
1543831235.0,286046996.9,N
1543831235.9,286046996.9,N
1543831255.8,286046997.3,N
1543831275.6,286046997.3,N
1543831295.4,286046995.5,N
1543831315.3,286046995.0,N
1543831335.1,286046995.2,N
1543831355.8,286046994.0,N
1543831375.7,286046994.8,N
1543831395.5,286046991.7,N
1543831415.4,286046992.5,N
1543831435.2,286046992.2,N
1543831455.0,286046996.1,N
1543831455.9,286046996.1,N
1543831475.8,286046995.7,N
1543831495.6,286046996.0,N
1543831515.4,286046997.2,N
1543831535.3,286047001.2,N
1543831555.1,286047000.3,N
1543831575.9,286047002.7,N
1543831595.7,286047001.9,N
1543831615.5,286047002.0,N
1543831635.4,286047001.0,N
1543831655.2,286047001.1,N
1543831675.0,286046999.3,N
1543831675.9,286046999.3,N
1543831695.8,286046996.8,N
1543831715.6,286046998.2,N
1543831735.5,286047002.0,N
1543831755.3,286047001.6,N
1543831775.1,286047002.0,N
1543831795.9,286046999.8,N
1543831815.7,286047000.7,N
1543831835.5,286046999.0,N
1543831855.4,286046998.2,N
1543831875.2,286046996.6,N
1543831895.0,286046996.7,N
1543831896.0,286046996.7,N
1543831915.8,286046995.3,N
1543831935.6,286046997.6,N
1543831955.5,286046998.0,N
1543831975.3,286046997.9,N
1543831995.1,286046997.3,N
1543832015.9,286046997.8,N
1543832035.7,286046999.6,N
1543832055.5,286046996.5,N
1543832075.4,286046997.9,N
1543832095.2,286046995.8,N
1543832115.1,286046993.9,N
1543832116.0,286046993.9,N
1543832135.8,286046993.8,N
1543832155.6,286046994.0,N
1543832175.5,286046991.8,Y
1543832195.3,286046996.1,P
1543832215.2,286046997.8,N
1543832235.9,286046995.2,P
1543832255.7,286046995.0,Y
1543832275.6,286046999.0,P
1543832295.4,286046999.4,N
1543832315.2,286046998.7,N
1543832335.1,286046998.5,N
1543832336.0,286046998.5,N
1543832355.8,286046998.3,N
1543832375.7,286046999.1,N
1543832395.5,286047000.7,N
1543832415.3,286047003.0,Y
1543832435.2,286047006.7,P
1543832455.0,286047002.9,N
1543832455.9,286047002.9,N
1543832475.8,286047003.8,N
1543832495.6,286047005.1,N
1543832515.4,286047002.9,N
1543832535.3,286047007.1,Y
1543832555.1,286047004.8,P
1543832575.9,286047004.7,P
1543832595.7,286047008.4,P
1543832615.5,286047009.0,Y
1543832635.4,286047003.6,P
1543832655.2,286047001.4,N
1543832675.0,286047001.6,N
1543832676.0,286047001.6,N
1543832695.8,286047000.7,N
1543832715.6,286046998.4,N
1543832735.5,286046999.2,N
1543832755.3,286046995.6,N
1543832775.1,286046993.7,N
1543832795.9,286046993.6,N
1543832815.7,286046993.5,N
1543832835.6,286046995.8,N
1543832855.4,286046996.8,N
1543832875.2,286046999.6,N
1543832895.1,286046996.4,N
1543832896.0,286046996.4,N
1543832915.8,286046996.1,N
1543832935.6,286046993.8,N
1543832955.5,286046994.0,N
1543832975.3,286046996.4,N
1543832995.2,286046993.6,N
1543833015.0,286046995.9,N
1543833015.9,286046995.9,N
1543833035.7,286046995.1,N
1543833055.6,286046996.4,N
1543833075.4,286046995.9,N
1543833095.3,286046993.5,N
1543833115.1,286046995.7,N
1543833116.0,286046995.7,N
1543833135.8,286046993.4,N
1543833155.7,286046993.7,N
1543833175.5,286046996.4,N
1543833195.4,286046993.6,N
1543833215.2,286046995.6,N
1543833235.0,286046997.9,N
1543833235.9,286046997.9,N
1543833255.8,286046995.9,N
1543833275.6,286046997.9,N
1543833295.4,286046998.4,N
1543833315.3,286047001.9,N
1543833335.1,286047005.6,N
1543833355.9,286047003.1,N
1543833375.7,286047004.6,N
1543833395.5,286047006.5,N
1543833415.4,286047007.0,N
1543833435.2,286047005.0,N
1543833455.1,286047003.1,N
1543833456.0,286047003.1,N
1543833475.8,286047005.3,N
1543833495.6,286047004.2,N
1543833515.5,286047001.3,N
1543833535.3,286047002.7,N
1543833555.2,286046999.7,N
1543833575.9,286047002.1,N
1543833595.7,286046998.7,N
1543833615.6,286047000.6,N
1543833635.4,286046998.2,N
1543833655.2,286046999.0,N
1543833675.1,286046996.7,N
1543833676.0,286046996.7,N
1543833695.8,286046999.6,N
1543833715.7,286046997.9,N
1543833735.5,286046997.5,N
1543833755.3,286046999.1,N
1543833775.2,286046995.5,N
1543833795.0,286046993.3,N
1543833795.9,286046993.3,N
1543833815.8,286046994.9,N
1543833835.6,286046997.6,N
1543833855.4,286046998.9,N
1543833875.3,286046998.9,N
1543833895.1,286047002.5,N
1543833915.9,286047000.4,N
1543833935.7,286047001.2,N
1543833955.5,286046999.0,N
1543833975.4,286046997.2,N
1543833995.2,286046996.8,N
1543834015.0,286046998.2,N
1543834015.9,286046998.2,N
1543834035.8,286047001.2,N
1543834055.6,286046999.7,N
1543834075.5,286047000.9,N
1543834095.3,286047001.2,N
1543834115.1,286046998.4,N
1543834165.9,286046999.4,E
1543834175.8,286046996.5,N
1543834195.7,286046997.6,P
1543834215.5,286046995.6,P
1543834235.3,286046995.9,Y
1543834255.2,286046998.7,P
1543834275.0,286046999.3,N
1543834275.9,286046999.3,N
1543834295.7,286046999.3,N
1543834315.6,286046997.9,N
1543834335.4,286046996.1,Y
1543834355.3,286046996.7,P
1543834375.1,286047011.9,P
1543834376.0,286046995.0,N
1543834395.8,286046997.5,N
1543834415.7,286046996.4,N
1543834435.5,286046997.6,N
1543834455.3,286046996.8,N
1543834475.2,286046998.1,N
1543834495.0,286046999.8,N
1543834495.9,286046999.8,N
1543834515.8,286047004.0,N
1543834535.6,286047004.1,N
1543834555.4,286047002.0,N
1543834575.3,286047002.3,N
1543834595.1,286047000.0,N
1543834615.8,286047001.2,N
1543834635.7,286047003.8,N
1543834655.5,286047000.6,N
1543834675.3,286047000.9,N
1543834695.2,286047002.1,N
1543834715.0,286047003.0,N
1543834715.9,286047003.0,N
1543834735.8,286047005.0,N
1543834755.6,286047004.9,N
1543834775.4,286047009.2,N
1543834795.3,286047011.7,Y
